Time,TemperatureF,DewpointF,PressureIn,WindDirection,WindDirectionDegrees,WindSpeedMPH,WindSpeedGustMPH,Humidity,HourlyPrecipIn,Conditions,Clouds,dailyrainin,SoftwareType,DateUTC
2013-02-03 00:01:00,39.7,38.7,30.20,NNE,22,0.0,2.0,96,0.00,,,0.00,Weather View 32 v70,2013-02-03 08:01:00,
2013-02-03 00:06:00,39.7,38.7,30.20,NNE,22,2.0,2.0,96,0.00,,,0.00,Weather View 32 v70,2013-02-03 08:06:00,
2013-02-03 00:11:00,39.6,38.6,30.21,NNE,22,1.0,2.0,96,0.00,,,0.00,Weather View 32 v70,2013-02-03 08:11:00,
2013-02-03 00:16:00,39.6,38.6,30.21,NNE,22,0.0,2.0,96,0.00,,,0.00,Weather View 32 v70,2013-02-03 08:16:00,
2013-02-03 00:21:00,39.7,38.7,30.21,NNE,22,0.0,2.0,96,0.00,,,0.00,Weather View 32 v70,2013-02-03 08:21:00,
2013-02-03 00:26:00,39.7,38.7,30.22,NNE,22,0.0,2.0,96,0.00,,,0.00,Weather View 32 v70,2013-02-03 08:26:00,
2013-02-03 00:31:00,39.7,38.7,30.23,NNE,22,0.0,2.0,96,0.00,,,0.00,Weather View 32 v70,2013-02-03 08:31:00,
2013-02-03 00:36:00,39.6,38.6,30.23,SSE,157,0.0,2.0,96,0.00,,,0.00,Weather View 32 v70,2013-02-03 08:36:00,
2013-02-03 00:41:00,39.5,38.5,30.23,SSE,157,1.0,2.0,96,0.00,,,0.00,Weather View 32 v70,2013-02-03 08:41:00,
2013-02-03 00:46:00,39.5,38.5,30.23,South,180,0.0,2.0,96,0.00,,,0.00,Weather View 32 v70,2013-02-03 08:46:00,
2013-02-03 00:51:00,39.4,38.4,30.23,South,180,0.0,2.0,96,0.00,,,0.00,Weather View 32 v70,2013-02-03 08:51:00,
2013-02-03 00:56:00,39.4,38.4,30.23,South,180,0.0,2.0,96,0.00,,,0.00,Weather View 32 v70,2013-02-03 08:56:00,
2013-02-03 01:01:00,39.5,38.5,30.22,South,180,0.0,2.0,96,0.00,,,0.00,Weather View 32 v70,2013-02-03 09:01:00,
2013-02-03 01:06:00,39.4,38.4,30.21,South,180,1.0,2.0,96,0.00,,,0.00,Weather View 32 v70,2013-02-03 09:06:00,
2013-02-03 01:11:00,39.4,38.4,30.21,South,180,0.0,2.0,96,0.00,,,0.00,Weather View 32 v70,2013-02-03 09:11:00,
2013-02-03 01:16:00,39.4,38.4,30.21,South,180,0.0,2.0,96,0.00,,,0.00,Weather View 32 v70,2013-02-03 09:16:00,
2013-02-03 01:21:00,39.4,38.4,30.21,South,180,0.0,2.0,96,0.00,,,0.00,Weather View 32 v70,2013-02-03 09:21:00,
2013-02-03 01:26:00,39.4,38.4,30.21,South,180,0.0,2.0,96,0.00,,,0.00,Weather View 32 v70,2013-02-03 09:26:00,
2013-02-03 01:31:00,39.4,38.4,30.21,South,180,0.0,2.0,96,0.00,,,0.00,Weather View 32 v70,2013-02-03 09:31:00,
2013-02-03 01:36:00,39.4,38.4,30.20,South,180,1.0,2.0,96,0.00,,,0.00,Weather View 32 v70,2013-02-03 09:36:00,
2013-02-03 01:41:00,39.4,38.4,30.20,NE,45,1.0,2.0,96,0.00,,,0.00,Weather View 32 v70,2013-02-03 09:41:00,
2013-02-03 01:46:00,39.4,38.4,30.21,NE,45,1.0,2.0,96,0.00,,,0.00,Weather View 32 v70,2013-02-03 09:46:00,
2013-02-03 01:51:00,39.4,38.4,30.20,NE,45,1.0,2.0,96,0.00,,,0.00,Weather View 32 v70,2013-02-03 09:51:00,
2013-02-03 01:56:00,39.4,38.4,30.20,NE,45,1.0,2.0,96,0.00,,,0.00,Weather View 32 v70,2013-02-03 09:56:00,
2013-02-03 02:01:00,39.4,38.4,30.20,NE,45,1.0,4.0,96,0.00,,,0.00,Weather View 32 v70,2013-02-03 10:01:00,
2013-02-03 02:06:00,39.4,38.4,30.20,NNE,22,2.0,4.0,96,0.00,,,0.00,Weather View 32 v70,2013-02-03 10:06:00,
2013-02-03 02:11:00,39.4,38.4,30.20,NNE,22,0.0,4.0,96,0.00,,,0.00,Weather View 32 v70,2013-02-03 10:11:00,
2013-02-03 02:16:00,39.4,38.4,30.21,NNE,22,0.0,4.0,96,0.00,,,0.00,Weather View 32 v70,2013-02-03 10:16:00,
2013-02-03 02:21:00,39.4,38.4,30.21,NNE,22,0.0,4.0,96,0.00,,,0.00,Weather View 32 v70,2013-02-03 10:21:00,
2013-02-03 02:26:00,39.3,38.3,30.21,West,270,2.0,4.0,96,0.00,,,0.00,Weather View 32 v70,2013-02-03 10:26:00,
2013-02-03 02:31:00,39.2,38.2,30.21,West,270,0.0,4.0,96,0.00,,,0.00,Weather View 32 v70,2013-02-03 10:31:00,
2013-02-03 02:36:00,39.2,38.2,30.22,West,270,0.0,4.0,96,0.00,,,0.00,Weather View 32 v70,2013-02-03 10:36:00,
2013-02-03 02:41:00,39.2,38.2,30.22,West,270,0.0,4.0,96,0.00,,,0.00,Weather View 32 v70,2013-02-03 10:41:00,
2013-02-03 02:46:00,39.2,38.2,30.21,West,270,0.0,4.0,96,0.00,,,0.00,Weather View 32 v70,2013-02-03 10:46:00,
2013-02-03 02:51:00,39.2,38.2,30.21,West,270,0.0,4.0,96,0.00,,,0.00,Weather View 32 v70,2013-02-03 10:51:00,
2013-02-03 02:56:00,39.2,38.2,30.21,West,270,0.0,4.0,96,0.00,,,0.00,Weather View 32 v70,2013-02-03 10:56:00,
2013-02-03 03:01:00,39.2,38.2,30.20,West,270,0.0,2.0,96,0.00,,,0.00,Weather View 32 v70,2013-02-03 11:01:00,
2013-02-03 03:06:00,39.2,38.2,30.20,West,270,0.0,2.0,96,0.00,,,0.00,Weather View 32 v70,2013-02-03 11:06:00,
2013-02-03 03:11:00,39.2,38.2,30.20,West,270,0.0,2.0,96,0.00,,,0.00,Weather View 32 v70,2013-02-03 11:11:00,
2013-02-03 03:16:00,39.2,38.2,30.20,West,270,0.0,2.0,96,0.00,,,0.00,Weather View 32 v70,2013-02-03 11:16:00,
2013-02-03 03:21:00,39.2,38.2,30.20,West,270,0.0,2.0,96,0.00,,,0.00,Weather View 32 v70,2013-02-03 11:21:00,
2013-02-03 03:26:00,39.2,38.2,30.20,NW,315,0.0,2.0,96,0.00,,,0.00,Weather View 32 v70,2013-02-03 11:26:00,
2013-02-03 03:31:00,39.2,38.2,30.21,NW,315,0.0,2.0,96,0.00,,,0.00,Weather View 32 v70,2013-02-03 11:31:00,
2013-02-03 03:36:00,39.1,38.1,30.21,North,360,1.0,2.0,96,0.00,,,0.00,Weather View 32 v70,2013-02-03 11:36:00,
2013-02-03 03:41:00,39.1,38.1,30.21,North,360,1.0,2.0,96,0.00,,,0.00,Weather View 32 v70,2013-02-03 11:41:00,
2013-02-03 03:46:00,39.0,38.0,30.20,North,360,1.0,2.0,96,0.00,,,0.00,Weather View 32 v70,2013-02-03 11:46:00,
2013-02-03 03:51:00,39.0,38.0,30.21,North,360,0.0,2.0,96,0.00,,,0.00,Weather View 32 v70,2013-02-03 11:51:00,
2013-02-03 03:56:00,39.0,38.0,30.21,North,360,1.0,2.0,96,0.00,,,0.00,Weather View 32 v70,2013-02-03 11:56:00,
2013-02-03 04:01:00,38.9,37.9,30.21,North,360,1.0,2.0,96,0.00,,,0.00,Weather View 32 v70,2013-02-03 12:01:00,
2013-02-03 04:06:00,38.9,37.9,30.20,North,360,1.0,2.0,96,0.00,,,0.00,Weather View 32 v70,2013-02-03 12:06:00,
2013-02-03 04:11:00,38.9,37.9,30.20,NNE,22,0.0,2.0,96,0.00,,,0.00,Weather View 32 v70,2013-02-03 12:11:00,
2013-02-03 04:16:00,38.8,37.8,30.20,North,360,0.0,2.0,96,0.00,,,0.00,Weather View 32 v70,2013-02-03 12:16:00,
2013-02-03 04:21:00,38.7,37.7,30.20,NNE,22,2.0,2.0,96,0.00,,,0.00,Weather View 32 v70,2013-02-03 12:21:00,
2013-02-03 04:26:00,38.5,37.5,30.20,NE,45,1.0,2.0,96,0.00,,,0.00,Weather View 32 v70,2013-02-03 12:26:00,
2013-02-03 04:31:00,38.4,37.4,30.20,NE,45,0.0,2.0,96,0.00,,,0.00,Weather View 32 v70,2013-02-03 12:31:00,
2013-02-03 04:36:00,38.4,37.4,30.20,NE,45,0.0,2.0,96,0.00,,,0.00,Weather View 32 v70,2013-02-03 12:36:00,
2013-02-03 04:41:00,38.3,37.3,30.20,NE,45,1.0,2.0,96,0.00,,,0.00,Weather View 32 v70,2013-02-03 12:41:00,
2013-02-03 04:46:00,38.2,37.2,30.21,ENE,67,1.0,2.0,96,0.00,,,0.00,Weather View 32 v70,2013-02-03 12:46:00,
2013-02-03 04:51:00,38.2,37.2,30.20,ENE,67,0.0,2.0,96,0.00,,,0.00,Weather View 32 v70,2013-02-03 12:51:00,
2013-02-03 04:56:00,38.1,37.1,30.20,NE,45,1.0,2.0,96,0.00,,,0.00,Weather View 32 v70,2013-02-03 12:56:00,
2013-02-03 05:01:00,38.0,37.0,30.20,NE,45,1.0,2.0,96,0.00,,,0.00,Weather View 32 v70,2013-02-03 13:01:00,
2013-02-03 05:06:00,37.9,36.6,30.20,NE,45,1.0,2.0,95,0.00,,,0.00,Weather View 32 v70,2013-02-03 13:06:00,
2013-02-03 05:11:00,37.9,36.6,30.20,NE,45,2.0,2.0,95,0.00,,,0.00,Weather View 32 v70,2013-02-03 13:11:00,
2013-02-03 05:16:00,37.8,36.5,30.21,ENE,67,2.0,2.0,95,0.00,,,0.00,Weather View 32 v70,2013-02-03 13:16:00,
2013-02-03 05:21:00,37.7,36.4,30.21,NE,45,2.0,2.0,95,0.00,,,0.00,Weather View 32 v70,2013-02-03 13:21:00,
2013-02-03 05:26:00,37.6,36.3,30.20,NE,45,1.0,2.0,95,0.00,,,0.00,Weather View 32 v70,2013-02-03 13:26:00,
2013-02-03 05:31:00,37.6,36.3,30.19,NE,45,1.0,2.0,95,0.00,,,0.00,Weather View 32 v70,2013-02-03 13:31:00,
2013-02-03 05:36:00,37.6,36.3,30.20,NE,45,1.0,2.0,95,0.00,,,0.00,Weather View 32 v70,2013-02-03 13:36:00,
2013-02-03 05:41:00,37.6,36.3,30.21,NE,45,2.0,2.0,95,0.00,,,0.00,Weather View 32 v70,2013-02-03 13:41:00,
2013-02-03 05:46:00,37.6,36.3,30.21,NE,45,0.0,2.0,95,0.00,,,0.00,Weather View 32 v70,2013-02-03 13:46:00,
2013-02-03 05:55:00,37.5,36.2,30.21,NE,45,2.0,2.0,95,0.00,,,0.00,Weather View 32 v70,2013-02-03 13:55:00,
2013-02-03 06:00:00,37.5,36.2,30.21,NE,45,2.0,2.0,95,0.00,,,0.00,Weather View 32 v70,2013-02-03 14:00:00,
2013-02-03 06:05:00,37.5,36.2,30.21,NE,45,0.0,2.0,95,0.00,,,0.00,Weather View 32 v70,2013-02-03 14:05:00,
2013-02-03 06:10:00,37.5,36.2,30.21,NE,45,2.0,2.0,95,0.00,,,0.00,Weather View 32 v70,2013-02-03 14:10:00,
2013-02-03 06:15:00,37.5,36.2,30.21,ENE,67,1.0,2.0,95,0.00,,,0.00,Weather View 32 v70,2013-02-03 14:15:00,
2013-02-03 06:20:00,37.4,36.1,30.21,ENE,67,2.0,2.0,95,0.00,,,0.00,Weather View 32 v70,2013-02-03 14:20:00,
2013-02-03 06:25:00,37.4,36.1,30.21,NNW,337,0.0,2.0,95,0.00,,,0.00,Weather View 32 v70,2013-02-03 14:25:00,
2013-02-03 06:30:00,37.5,36.2,30.21,NW,315,0.0,2.0,95,0.00,,,0.00,Weather View 32 v70,2013-02-03 14:30:00,
2013-02-03 06:35:00,37.5,36.2,30.21,NNE,22,0.0,3.0,95,0.00,,,0.00,Weather View 32 v70,2013-02-03 14:35:00,
2013-02-03 06:40:00,37.5,36.2,30.21,North,360,1.0,3.0,95,0.00,,,0.00,Weather View 32 v70,2013-02-03 14:40:00,
2013-02-03 06:45:00,37.5,36.2,30.21,West,270,0.0,3.0,95,0.00,,,0.00,Weather View 32 v70,2013-02-03 14:45:00,
2013-02-03 06:50:00,37.5,36.2,30.21,West,270,0.0,3.0,95,0.00,,,0.00,Weather View 32 v70,2013-02-03 14:50:00,
2013-02-03 06:55:00,37.5,36.2,30.21,NNE,22,1.0,3.0,95,0.00,,,0.00,Weather View 32 v70,2013-02-03 14:55:00,
2013-02-03 07:00:00,37.6,36.3,30.21,West,270,2.0,3.0,95,0.00,,,0.00,Weather View 32 v70,2013-02-03 15:00:00,
2013-02-03 07:05:00,37.7,36.4,30.21,West,270,1.0,3.0,95,0.00,,,0.00,Weather View 32 v70,2013-02-03 15:05:00,
2013-02-03 07:10:00,37.8,36.5,30.20,West,270,0.0,3.0,95,0.00,,,0.00,Weather View 32 v70,2013-02-03 15:10:00,
2013-02-03 07:15:00,37.8,36.5,30.21,West,270,0.0,3.0,95,0.00,,,0.00,Weather View 32 v70,2013-02-03 15:15:00,
2013-02-03 07:20:00,37.8,36.5,30.20,West,270,0.0,3.0,95,0.00,,,0.00,Weather View 32 v70,2013-02-03 15:20:00,
2013-02-03 07:25:00,37.8,36.5,30.20,West,270,0.0,3.0,95,0.00,,,0.00,Weather View 32 v70,2013-02-03 15:25:00,
2013-02-03 07:30:00,37.9,36.6,30.19,NNE,22,2.0,4.0,95,0.00,,,0.00,Weather View 32 v70,2013-02-03 15:30:00,
2013-02-03 07:35:00,38.1,37.1,30.19,North,360,3.0,4.0,96,0.00,,,0.00,Weather View 32 v70,2013-02-03 15:35:00,
2013-02-03 07:40:00,38.3,37.3,30.19,NNE,22,2.0,4.0,96,0.00,,,0.00,Weather View 32 v70,2013-02-03 15:40:00,
2013-02-03 07:45:00,38.3,37.3,30.19,WSW,247,1.0,4.0,96,0.00,,,0.00,Weather View 32 v70,2013-02-03 15:45:00,
2013-02-03 07:50:00,38.5,37.5,30.19,NW,315,0.0,4.0,96,0.00,,,0.00,Weather View 32 v70,2013-02-03 15:50:00,
2013-02-03 07:55:00,38.8,37.8,30.20,NNE,22,2.0,4.0,96,0.00,,,0.00,Weather View 32 v70,2013-02-03 15:55:00,
2013-02-03 08:00:00,38.8,37.8,30.19,North,360,0.0,4.0,96,0.00,,,0.00,Weather View 32 v70,2013-02-03 16:00:00,
2013-02-03 08:05:00,38.9,37.9,30.20,West,270,0.0,4.0,96,0.00,,,0.00,Weather View 32 v70,2013-02-03 16:05:00,
2013-02-03 08:10:00,38.9,37.9,30.20,WNW,292,1.0,4.0,96,0.00,,,0.00,Weather View 32 v70,2013-02-03 16:10:00,
2013-02-03 08:15:00,39.1,38.1,30.21,WSW,247,2.0,4.0,96,0.00,,,0.00,Weather View 32 v70,2013-02-03 16:15:00,
2013-02-03 08:20:00,39.7,38.7,30.21,North,360,0.0,4.0,96,0.00,,,0.00,Weather View 32 v70,2013-02-03 16:20:00,
2013-02-03 08:25:00,39.8,38.8,30.21,NNW,337,0.0,4.0,96,0.00,,,0.00,Weather View 32 v70,2013-02-03 16:25:00,
2013-02-03 08:30:00,39.8,38.8,30.21,West,270,0.0,4.0,96,0.00,,,0.00,Weather View 32 v70,2013-02-03 16:30:00,
2013-02-03 08:35:00,39.9,38.9,30.22,North,360,0.0,4.0,96,0.00,,,0.00,Weather View 32 v70,2013-02-03 16:35:00,
2013-02-03 08:40:00,39.9,38.9,30.22,North,360,0.0,4.0,96,0.00,,,0.00,Weather View 32 v70,2013-02-03 16:40:00,
2013-02-03 08:45:00,39.9,38.9,30.22,NW,315,1.0,4.0,96,0.00,,,0.00,Weather View 32 v70,2013-02-03 16:45:00,
2013-02-03 08:50:00,40.2,39.1,30.22,NW,315,0.0,4.0,96,0.00,,,0.00,Weather View 32 v70,2013-02-03 16:50:00,
2013-02-03 08:55:00,40.3,39.2,30.22,NW,315,0.0,4.0,96,0.00,,,0.00,Weather View 32 v70,2013-02-03 16:55:00,
2013-02-03 09:00:00,40.4,39.3,30.22,North,360,0.0,4.0,96,0.00,,,0.00,Weather View 32 v70,2013-02-03 17:00:00,
2013-02-03 09:05:00,40.6,39.5,30.22,NNE,22,1.0,4.0,96,0.00,,,0.00,Weather View 32 v70,2013-02-03 17:05:00,
2013-02-03 09:10:00,40.6,39.5,30.22,NNE,22,0.0,4.0,96,0.00,,,0.00,Weather View 32 v70,2013-02-03 17:10:00,
2013-02-03 09:15:00,40.7,39.6,30.22,NNE,22,0.0,4.0,96,0.00,,,0.00,Weather View 32 v70,2013-02-03 17:15:00,
2013-02-03 09:20:00,40.8,39.7,30.22,NNW,337,1.0,2.0,96,0.00,,,0.00,Weather View 32 v70,2013-02-03 17:20:00,
2013-02-03 09:25:00,40.8,39.7,30.22,NNW,337,0.0,2.0,96,0.00,,,0.00,Weather View 32 v70,2013-02-03 17:25:00,
2013-02-03 09:30:00,40.8,39.7,30.21,NNE,22,0.0,2.0,96,0.00,,,0.00,Weather View 32 v70,2013-02-03 17:30:00,
2013-02-03 09:35:00,40.9,39.8,30.21,North,360,2.0,2.0,96,0.00,,,0.00,Weather View 32 v70,2013-02-03 17:35:00,
2013-02-03 09:40:00,40.9,39.8,30.21,NNW,337,0.0,2.0,96,0.00,,,0.00,Weather View 32 v70,2013-02-03 17:40:00,
2013-02-03 09:45:00,40.9,39.8,30.21,SW,225,0.0,3.0,96,0.00,,,0.00,Weather View 32 v70,2013-02-03 17:45:00,
2013-02-03 09:50:00,40.9,39.8,30.21,North,360,0.0,3.0,96,0.00,,,0.00,Weather View 32 v70,2013-02-03 17:50:00,
2013-02-03 09:55:00,41.0,39.9,30.21,NE,45,2.0,3.0,96,0.00,,,0.00,Weather View 32 v70,2013-02-03 17:55:00,
2013-02-03 10:00:00,40.9,39.8,30.21,NE,45,2.0,3.0,96,0.00,,,0.00,Weather View 32 v70,2013-02-03 18:00:00,
2013-02-03 10:05:00,40.9,39.8,30.21,NNE,22,1.0,3.0,96,0.00,,,0.00,Weather View 32 v70,2013-02-03 18:05:00,
2013-02-03 10:10:00,41.1,40.0,30.21,NNE,22,2.0,3.0,96,0.00,,,0.00,Weather View 32 v70,2013-02-03 18:10:00,
2013-02-03 10:15:00,41.1,40.0,30.22,NNE,22,2.0,3.0,96,0.00,,,0.00,Weather View 32 v70,2013-02-03 18:15:00,
2013-02-03 10:20:00,41.2,40.1,30.22,NNE,22,1.0,3.0,96,0.00,,,0.00,Weather View 32 v70,2013-02-03 18:20:00,
2013-02-03 10:25:00,41.3,40.2,30.23,North,360,1.0,3.0,96,0.00,,,0.00,Weather View 32 v70,2013-02-03 18:25:00,
2013-02-03 10:30:00,41.4,40.3,30.23,North,360,0.0,3.0,96,0.00,,,0.00,Weather View 32 v70,2013-02-03 18:30:00,
2013-02-03 10:36:00,41.5,40.4,30.24,North,360,0.0,3.0,96,0.00,,,0.00,Weather View 32 v70,2013-02-03 18:36:00,
2013-02-03 10:41:00,41.6,40.5,30.24,North,360,0.0,3.0,96,0.00,,,0.00,Weather View 32 v70,2013-02-03 18:41:00,
2013-02-03 10:46:00,41.8,40.7,30.24,North,360,0.0,3.0,96,0.00,,,0.00,Weather View 32 v70,2013-02-03 18:46:00,
2013-02-03 10:51:00,41.9,40.8,30.24,North,360,1.0,3.0,96,0.01,,,0.00,Weather View 32 v70,2013-02-03 18:51:00,
2013-02-03 10:56:00,41.9,40.8,30.24,North,360,1.0,3.0,96,0.00,,,0.00,Weather View 32 v70,2013-02-03 18:56:00,
2013-02-03 11:01:00,41.9,40.8,30.24,North,360,1.0,3.0,96,0.01,,,0.00,Weather View 32 v70,2013-02-03 19:01:00,
2013-02-03 11:06:00,41.9,40.8,30.24,North,360,1.0,3.0,96,0.00,,,0.00,Weather View 32 v70,2013-02-03 19:06:00,
2013-02-03 11:11:00,41.9,40.8,30.24,NNE,22,2.0,3.0,96,0.00,,,0.00,Weather View 32 v70,2013-02-03 19:11:00,
2013-02-03 11:16:00,41.9,40.8,30.23,NNE,22,2.0,4.0,96,0.00,,,0.00,Weather View 32 v70,2013-02-03 19:16:00,
2013-02-03 11:21:00,41.9,40.8,30.23,NNE,22,1.0,4.0,96,0.00,,,0.00,Weather View 32 v70,2013-02-03 19:21:00,
2013-02-03 11:26:00,42.1,41.0,30.23,NNE,22,2.0,4.0,96,0.00,,,0.00,Weather View 32 v70,2013-02-03 19:26:00,
2013-02-03 11:31:00,42.2,41.1,30.23,North,360,0.0,4.0,96,0.00,,,0.00,Weather View 32 v70,2013-02-03 19:31:00,
2013-02-03 11:36:00,42.3,41.2,30.22,North,360,0.0,4.0,96,0.00,,,0.00,Weather View 32 v70,2013-02-03 19:36:00,
2013-02-03 11:41:00,42.5,41.4,30.21,NE,45,2.0,4.0,96,0.00,,,0.00,Weather View 32 v70,2013-02-03 19:41:00,
2013-02-03 11:46:00,42.8,41.7,30.21,WNW,292,1.0,4.0,96,0.00,,,0.00,Weather View 32 v70,2013-02-03 19:46:00,
2013-02-03 11:51:00,42.9,41.8,30.21,NW,315,0.0,4.0,96,0.00,,,0.00,Weather View 32 v70,2013-02-03 19:51:00,
2013-02-03 11:56:00,42.9,41.8,30.21,North,360,0.0,4.0,96,0.00,,,0.00,Weather View 32 v70,2013-02-03 19:56:00,
2013-02-03 12:01:00,43.0,41.9,30.22,WSW,247,0.0,4.0,96,0.00,,,0.00,Weather View 32 v70,2013-02-03 20:01:00,
2013-02-03 12:06:00,43.2,42.1,30.22,West,270,0.0,4.0,96,0.00,,,0.00,Weather View 32 v70,2013-02-03 20:06:00,
2013-02-03 12:11:00,43.3,42.2,30.23,North,360,1.0,4.0,96,0.00,,,0.00,Weather View 32 v70,2013-02-03 20:11:00,
2013-02-03 12:16:00,43.3,42.2,30.23,WSW,247,0.0,4.0,96,0.00,,,0.00,Weather View 32 v70,2013-02-03 20:16:00,
2013-02-03 12:21:00,43.4,42.3,30.23,North,360,0.0,4.0,96,0.00,,,0.00,Weather View 32 v70,2013-02-03 20:21:00,
2013-02-03 12:26:00,43.3,42.2,30.23,NNE,22,1.0,4.0,96,0.00,,,0.00,Weather View 32 v70,2013-02-03 20:26:00,
2013-02-03 12:31:00,43.3,42.2,30.23,NNE,22,1.0,4.0,96,0.00,,,0.00,Weather View 32 v70,2013-02-03 20:31:00,
2013-02-03 12:36:00,43.2,42.1,30.22,North,360,0.0,4.0,96,0.00,,,0.00,Weather View 32 v70,2013-02-03 20:36:00,
2013-02-03 12:41:00,43.1,42.0,30.23,North,360,0.0,4.0,96,0.00,,,0.00,Weather View 32 v70,2013-02-03 20:41:00,
2013-02-03 12:46:00,42.9,41.8,30.22,North,360,0.0,4.0,96,0.00,,,0.00,Weather View 32 v70,2013-02-03 20:46:00,
2013-02-03 12:51:00,42.8,41.7,30.23,North,360,0.0,4.0,96,0.00,,,0.00,Weather View 32 v70,2013-02-03 20:51:00,
2013-02-03 12:56:00,42.8,41.7,30.22,North,360,0.0,4.0,96,0.00,,,0.00,Weather View 32 v70,2013-02-03 20:56:00,
2013-02-03 13:01:00,42.6,41.5,30.21,NNE,22,0.0,3.0,96,0.00,,,0.00,Weather View 32 v70,2013-02-03 21:01:00,
2013-02-03 13:06:00,42.6,41.5,30.21,NNE,22,1.0,3.0,96,0.00,,,0.00,Weather View 32 v70,2013-02-03 21:06:00,
2013-02-03 13:11:00,42.6,41.5,30.21,North,360,1.0,3.0,96,0.00,,,0.00,Weather View 32 v70,2013-02-03 21:11:00,
2013-02-03 13:16:00,42.6,41.5,30.20,North,360,2.0,3.0,96,0.00,,,0.00,Weather View 32 v70,2013-02-03 21:16:00,
2013-02-03 13:21:00,42.6,41.5,30.20,West,270,0.0,3.0,96,0.00,,,0.00,Weather View 32 v70,2013-02-03 21:21:00,
2013-02-03 13:26:00,42.6,41.5,30.19,NW,315,0.0,4.0,96,0.00,,,0.00,Weather View 32 v70,2013-02-03 21:26:00,
2013-02-03 13:31:00,42.7,41.6,30.19,WNW,292,0.0,4.0,96,0.00,,,0.00,Weather View 32 v70,2013-02-03 21:31:00,
2013-02-03 13:36:00,42.8,41.7,30.19,NNE,22,2.0,4.0,96,0.00,,,0.00,Weather View 32 v70,2013-02-03 21:36:00,
2013-02-03 13:41:00,42.8,41.7,30.19,WNW,292,0.0,4.0,96,0.00,,,0.00,Weather View 32 v70,2013-02-03 21:41:00,
2013-02-03 13:46:00,42.8,41.7,30.19,SSW,202,2.0,4.0,96,0.00,,,0.00,Weather View 32 v70,2013-02-03 21:46:00,
2013-02-03 13:51:00,42.8,41.7,30.19,SSW,202,0.0,4.0,96,0.00,,,0.00,Weather View 32 v70,2013-02-03 21:51:00,
2013-02-03 13:56:00,42.9,41.8,30.19,SSW,202,0.0,4.0,96,0.00,,,0.00,Weather View 32 v70,2013-02-03 21:56:00,
2013-02-03 14:01:00,42.9,41.8,30.19,North,360,0.0,4.0,96,0.00,,,0.00,Weather View 32 v70,2013-02-03 22:01:00,
2013-02-03 14:06:00,42.9,41.8,30.19,North,360,0.0,4.0,96,0.00,,,0.00,Weather View 32 v70,2013-02-03 22:06:00,
2013-02-03 14:11:00,43.1,42.0,30.19,NNW,337,0.0,4.0,96,0.00,,,0.00,Weather View 32 v70,2013-02-03 22:11:00,
2013-02-03 14:16:00,43.1,42.0,30.19,NNW,337,0.0,4.0,96,0.00,,,0.00,Weather View 32 v70,2013-02-03 22:16:00,
2013-02-03 14:21:00,43.1,42.0,30.19,North,360,0.0,4.0,96,0.00,,,0.00,Weather View 32 v70,2013-02-03 22:21:00,
2013-02-03 14:26:00,43.1,42.0,30.19,NE,45,2.0,2.0,96,0.00,,,0.00,Weather View 32 v70,2013-02-03 22:26:00,
2013-02-03 14:31:00,43.2,42.1,30.19,NNE,22,1.0,3.0,96,0.00,,,0.00,Weather View 32 v70,2013-02-03 22:31:00,
2013-02-03 14:36:00,43.2,42.1,30.19,NE,45,1.0,3.0,96,0.00,,,0.00,Weather View 32 v70,2013-02-03 22:36:00,
2013-02-03 14:41:00,43.2,42.1,30.19,NE,45,0.0,3.0,96,0.00,,,0.00,Weather View 32 v70,2013-02-03 22:41:00,
2013-02-03 14:46:00,43.1,42.0,30.19,NE,45,0.0,3.0,96,0.00,,,0.00,Weather View 32 v70,2013-02-03 22:46:00,
2013-02-03 14:51:00,43.0,41.9,30.19,NNE,22,0.0,3.0,96,0.00,,,0.00,Weather View 32 v70,2013-02-03 22:51:00,
2013-02-03 14:56:00,42.9,41.8,30.19,NNE,22,0.0,3.0,96,0.00,,,0.00,Weather View 32 v70,2013-02-03 22:56:00,
2013-02-03 15:01:00,42.9,41.8,30.19,NNE,22,0.0,3.0,96,0.00,,,0.00,Weather View 32 v70,2013-02-03 23:01:00,
2013-02-03 15:06:00,42.9,41.8,30.19,NNE,22,1.0,3.0,96,0.00,,,0.00,Weather View 32 v70,2013-02-03 23:06:00,
2013-02-03 15:11:00,42.9,41.8,30.19,NNW,337,0.0,3.0,96,0.00,,,0.00,Weather View 32 v70,2013-02-03 23:11:00,
2013-02-03 15:16:00,42.9,41.8,30.19,NNW,337,0.0,3.0,96,0.01,,,0.01,Weather View 32 v70,2013-02-03 23:16:00,
2013-02-03 15:21:00,42.9,41.8,30.19,NNW,337,0.0,3.0,96,0.01,,,0.01,Weather View 32 v70,2013-02-03 23:21:00,
2013-02-03 15:26:00,43.0,41.9,30.19,WNW,292,0.0,3.0,96,0.01,,,0.01,Weather View 32 v70,2013-02-03 23:26:00,
2013-02-03 15:31:00,43.0,41.9,30.19,NNE,22,1.0,3.0,96,0.01,,,0.01,Weather View 32 v70,2013-02-03 23:31:00,
2013-02-03 15:36:00,43.1,42.0,30.19,NNE,22,0.0,3.0,96,0.01,,,0.01,Weather View 32 v70,2013-02-03 23:36:00,
2013-02-03 15:41:00,43.1,42.0,30.19,NNE,22,0.0,3.0,96,0.01,,,0.01,Weather View 32 v70,2013-02-03 23:41:00,
2013-02-03 15:46:00,43.1,42.0,30.19,NNE,22,1.0,3.0,96,0.01,,,0.01,Weather View 32 v70,2013-02-03 23:46:00,
2013-02-03 15:51:00,43.1,42.0,30.19,North,360,0.0,3.0,96,0.01,,,0.01,Weather View 32 v70,2013-02-03 23:51:00,
2013-02-03 15:56:00,42.9,41.8,30.19,North,360,0.0,3.0,96,0.01,,,0.01,Weather View 32 v70,2013-02-03 23:56:00,
2013-02-03 16:01:00,43.1,42.0,30.19,North,360,1.0,3.0,96,0.01,,,0.01,Weather View 32 v70,2013-02-04 00:01:00,
2013-02-03 16:06:00,42.9,41.8,30.19,North,360,0.0,2.0,96,0.01,,,0.01,Weather View 32 v70,2013-02-04 00:06:00,
2013-02-03 16:11:00,42.9,41.8,30.19,North,360,0.0,2.0,96,0.02,,,0.02,Weather View 32 v70,2013-02-04 00:11:00,
2013-02-03 16:16:00,42.8,41.7,30.19,North,360,0.0,2.0,96,0.01,,,0.02,Weather View 32 v70,2013-02-04 00:16:00,
2013-02-03 16:21:00,42.8,41.7,30.19,North,360,0.0,2.0,96,0.01,,,0.02,Weather View 32 v70,2013-02-04 00:21:00,
2013-02-03 16:26:00,42.7,41.6,30.19,North,360,0.0,2.0,96,0.02,,,0.03,Weather View 32 v70,2013-02-04 00:26:00,
2013-02-03 16:31:00,42.7,41.6,30.19,North,360,0.0,2.0,96,0.02,,,0.03,Weather View 32 v70,2013-02-04 00:31:00,
2013-02-03 16:36:00,42.7,41.6,30.19,North,360,0.0,2.0,96,0.02,,,0.03,Weather View 32 v70,2013-02-04 00:36:00,
2013-02-03 16:41:00,42.6,41.5,30.19,North,360,0.0,2.0,96,0.02,,,0.03,Weather View 32 v70,2013-02-04 00:41:00,
2013-02-03 16:46:00,42.6,41.5,30.19,North,360,0.0,2.0,96,0.02,,,0.03,Weather View 32 v70,2013-02-04 00:46:00,
2013-02-03 16:51:00,42.6,41.5,30.19,North,360,0.0,2.0,96,0.02,,,0.03,Weather View 32 v70,2013-02-04 00:51:00,
2013-02-03 16:56:00,42.6,41.5,30.19,North,360,0.0,2.0,96,0.03,,,0.04,Weather View 32 v70,2013-02-04 00:56:00,
2013-02-03 17:01:00,42.7,41.6,30.18,North,360,0.0,2.0,96,0.03,,,0.04,Weather View 32 v70,2013-02-04 01:01:00,
2013-02-03 17:06:00,42.6,41.5,30.18,North,360,0.0,1.0,96,0.03,,,0.04,Weather View 32 v70,2013-02-04 01:06:00,
2013-02-03 17:11:00,42.6,41.5,30.18,North,360,0.0,1.0,96,0.03,,,0.05,Weather View 32 v70,2013-02-04 01:11:00,
2013-02-03 17:16:00,42.6,41.5,30.18,North,360,0.0,1.0,96,0.03,,,0.05,Weather View 32 v70,2013-02-04 01:16:00,
2013-02-03 17:21:00,42.6,41.5,30.18,North,360,0.0,1.0,96,0.03,,,0.05,Weather View 32 v70,2013-02-04 01:21:00,
2013-02-03 17:26:00,42.5,41.4,30.18,North,360,0.0,1.0,96,0.02,,,0.05,Weather View 32 v70,2013-02-04 01:26:00,
2013-02-03 17:31:00,42.5,41.4,30.18,North,360,0.0,1.0,96,0.02,,,0.05,Weather View 32 v70,2013-02-04 01:31:00,
2013-02-03 17:36:00,42.5,41.4,30.18,North,360,0.0,1.0,96,0.02,,,0.05,Weather View 32 v70,2013-02-04 01:36:00,
2013-02-03 17:41:00,42.5,41.4,30.18,North,360,0.0,1.0,96,0.03,,,0.06,Weather View 32 v70,2013-02-04 01:41:00,
2013-02-03 17:46:00,42.5,41.4,30.18,North,360,0.0,1.0,96,0.03,,,0.06,Weather View 32 v70,2013-02-04 01:46:00,
2013-02-03 17:51:00,42.6,41.5,30.18,North,360,0.0,1.0,96,0.03,,,0.06,Weather View 32 v70,2013-02-04 01:51:00,
2013-02-03 17:56:00,42.6,41.5,30.18,North,360,0.0,1.0,96,0.03,,,0.07,Weather View 32 v70,2013-02-04 01:56:00,
2013-02-03 18:01:00,42.6,41.5,30.18,North,360,0.0,0.0,96,0.03,,,0.07,Weather View 32 v70,2013-02-04 02:01:00,
2013-02-03 18:06:00,42.6,41.5,30.18,North,360,0.0,0.0,96,0.04,,,0.08,Weather View 32 v70,2013-02-04 02:06:00,
2013-02-03 18:11:00,42.6,41.5,30.18,North,360,0.0,0.0,96,0.03,,,0.08,Weather View 32 v70,2013-02-04 02:11:00,
2013-02-03 18:16:00,42.6,41.5,30.18,North,360,0.0,0.0,96,0.04,,,0.09,Weather View 32 v70,2013-02-04 02:16:00,
2013-02-03 18:21:00,42.5,41.4,30.17,North,360,0.0,0.0,96,0.04,,,0.09,Weather View 32 v70,2013-02-04 02:21:00,
2013-02-03 18:26:00,42.5,41.4,30.18,North,360,0.0,0.0,96,0.05,,,0.10,Weather View 32 v70,2013-02-04 02:26:00,
2013-02-03 18:31:00,42.5,41.4,30.17,North,360,0.0,0.0,96,0.06,,,0.11,Weather View 32 v70,2013-02-04 02:31:00,
2013-02-03 18:36:00,42.5,41.4,30.17,North,360,0.0,0.0,96,0.07,,,0.12,Weather View 32 v70,2013-02-04 02:36:00,
2013-02-03 18:41:00,42.4,41.3,30.17,North,360,0.0,0.0,96,0.06,,,0.12,Weather View 32 v70,2013-02-04 02:41:00,
2013-02-03 18:46:00,42.4,41.3,30.17,North,360,0.0,0.0,96,0.07,,,0.13,Weather View 32 v70,2013-02-04 02:46:00,
2013-02-03 18:51:00,42.4,41.3,30.17,North,360,0.0,0.0,96,0.08,,,0.14,Weather View 32 v70,2013-02-04 02:51:00,
2013-02-03 18:56:00,42.5,41.4,30.17,North,360,0.0,0.0,96,0.08,,,0.15,Weather View 32 v70,2013-02-04 02:56:00,
2013-02-03 19:01:00,42.6,41.5,30.17,North,360,0.0,1.0,96,0.08,,,0.16,Weather View 32 v70,2013-02-04 03:01:00,
2013-02-03 19:06:00,42.6,41.5,30.17,North,360,0.0,1.0,96,0.08,,,0.16,Weather View 32 v70,2013-02-04 03:06:00,
2013-02-03 19:11:00,42.5,41.4,30.17,North,360,0.0,1.0,96,0.09,,,0.17,Weather View 32 v70,2013-02-04 03:11:00,
2013-02-03 19:16:00,42.5,41.4,30.17,North,360,0.0,1.0,96,0.09,,,0.18,Weather View 32 v70,2013-02-04 03:16:00,
2013-02-03 19:21:00,42.6,41.5,30.17,North,360,0.0,2.0,96,0.10,,,0.19,Weather View 32 v70,2013-02-04 03:21:00,
2013-02-03 19:26:00,42.7,41.6,30.17,North,360,0.0,2.0,96,0.10,,,0.20,Weather View 32 v70,2013-02-04 03:26:00,
2013-02-03 19:31:00,42.7,41.6,30.17,North,360,0.0,2.0,96,0.10,,,0.21,Weather View 32 v70,2013-02-04 03:31:00,
2013-02-03 19:36:00,42.7,41.6,30.17,North,360,0.0,2.0,96,0.09,,,0.21,Weather View 32 v70,2013-02-04 03:36:00,
2013-02-03 19:41:00,42.8,41.7,30.17,ENE,67,1.0,2.0,96,0.10,,,0.22,Weather View 32 v70,2013-02-04 03:41:00,
2013-02-03 19:46:00,42.8,41.7,30.17,ENE,67,0.0,2.0,96,0.10,,,0.23,Weather View 32 v70,2013-02-04 03:46:00,
2013-02-03 19:51:00,42.8,41.7,30.17,ENE,67,1.0,2.0,96,0.09,,,0.23,Weather View 32 v70,2013-02-04 03:51:00,
2013-02-03 19:56:00,42.8,41.7,30.17,ENE,67,0.0,2.0,96,0.09,,,0.24,Weather View 32 v70,2013-02-04 03:56:00,
2013-02-03 20:01:00,42.8,41.7,30.17,NNE,22,0.0,2.0,96,0.09,,,0.24,Weather View 32 v70,2013-02-04 04:01:00,
2013-02-03 20:06:00,42.8,41.7,30.17,NNE,22,0.0,2.0,96,0.09,,,0.25,Weather View 32 v70,2013-02-04 04:06:00,
2013-02-03 20:11:00,42.8,41.7,30.16,NNE,22,2.0,2.0,96,0.09,,,0.26,Weather View 32 v70,2013-02-04 04:11:00,
2013-02-03 20:16:00,42.7,41.6,30.16,NNE,22,0.0,2.0,96,0.08,,,0.26,Weather View 32 v70,2013-02-04 04:16:00,
2013-02-03 20:21:00,42.7,41.6,30.16,NNE,22,0.0,2.0,96,0.08,,,0.27,Weather View 32 v70,2013-02-04 04:21:00,
2013-02-03 20:26:00,42.7,41.6,30.16,SW,225,0.0,2.0,96,0.07,,,0.27,Weather View 32 v70,2013-02-04 04:26:00,
2013-02-03 20:31:00,42.7,41.6,30.15,SW,225,0.0,2.0,96,0.06,,,0.27,Weather View 32 v70,2013-02-04 04:31:00,
2013-02-03 20:36:00,42.7,41.6,30.15,West,270,0.0,2.0,96,0.07,,,0.28,Weather View 32 v70,2013-02-04 04:36:00,
2013-02-03 20:41:00,42.7,41.6,30.15,NW,315,0.0,2.0,96,0.06,,,0.28,Weather View 32 v70,2013-02-04 04:41:00,
2013-02-03 20:46:00,42.7,41.6,30.15,NW,315,0.0,2.0,96,0.06,,,0.29,Weather View 32 v70,2013-02-04 04:46:00,
2013-02-03 20:51:00,42.7,41.6,30.16,NE,45,0.0,2.0,96,0.06,,,0.29,Weather View 32 v70,2013-02-04 04:51:00,
2013-02-03 20:56:00,42.7,41.6,30.16,NE,45,0.0,2.0,96,0.05,,,0.29,Weather View 32 v70,2013-02-04 04:56:00,
2013-02-03 21:00:00,42.8,41.7,30.16,NE,45,1.0,2.0,96,0.06,,,0.30,Weather View 32 v70,2013-02-04 05:00:00,
2013-02-03 21:01:00,42.8,41.7,30.16,NE,45,0.0,2.0,96,0.06,,,0.30,Weather View 32 v70,2013-02-04 05:01:00,
2013-02-03 21:06:00,42.8,41.7,30.15,NE,45,0.0,2.0,96,0.05,,,0.30,Weather View 32 v70,2013-02-04 05:06:00,
2013-02-03 21:11:00,42.7,41.6,30.16,West,270,0.0,2.0,96,0.04,,,0.30,Weather View 32 v70,2013-02-04 05:11:00,
2013-02-03 21:16:00,42.8,41.7,30.16,West,270,0.0,2.0,96,0.05,,,0.31,Weather View 32 v70,2013-02-04 05:16:00,
2013-02-03 21:21:00,42.8,41.7,30.16,ENE,67,2.0,2.0,96,0.04,,,0.31,Weather View 32 v70,2013-02-04 05:21:00,
2013-02-03 21:26:00,42.8,41.7,30.15,ENE,67,1.0,2.0,96,0.04,,,0.31,Weather View 32 v70,2013-02-04 05:26:00,
2013-02-03 21:31:00,42.8,41.7,30.15,ENE,67,0.0,2.0,96,0.05,,,0.32,Weather View 32 v70,2013-02-04 05:31:00,
2013-02-03 21:36:00,42.8,41.7,30.15,ENE,67,0.0,2.0,96,0.04,,,0.32,Weather View 32 v70,2013-02-04 05:36:00,
2013-02-03 21:41:00,42.7,41.6,30.15,ENE,67,0.0,2.0,96,0.04,,,0.32,Weather View 32 v70,2013-02-04 05:41:00,
2013-02-03 21:46:00,42.6,41.5,30.15,ENE,67,0.0,2.0,96,0.03,,,0.32,Weather View 32 v70,2013-02-04 05:46:00,
2013-02-03 21:51:00,42.7,41.6,30.16,North,360,1.0,2.0,96,0.03,,,0.32,Weather View 32 v70,2013-02-04 05:51:00,
2013-02-03 21:56:00,42.8,41.7,30.15,NE,45,0.0,2.0,96,0.03,,,0.32,Weather View 32 v70,2013-02-04 05:56:00,
2013-02-03 22:01:00,42.8,41.7,30.15,NE,45,2.0,2.0,96,0.02,,,0.33,Weather View 32 v70,2013-02-04 06:01:00,
2013-02-03 22:06:00,42.8,41.7,30.15,NE,45,0.0,2.0,96,0.03,,,0.33,Weather View 32 v70,2013-02-04 06:06:00,
2013-02-03 22:11:00,42.8,41.7,30.15,NE,45,0.0,2.0,96,0.03,,,0.33,Weather View 32 v70,2013-02-04 06:11:00,
2013-02-03 22:16:00,42.8,41.7,30.15,NE,45,0.0,2.0,96,0.02,,,0.33,Weather View 32 v70,2013-02-04 06:16:00,
2013-02-03 22:21:00,42.8,41.7,30.15,ENE,67,1.0,2.0,96,0.02,,,0.33,Weather View 32 v70,2013-02-04 06:21:00,
2013-02-03 22:26:00,42.8,41.7,30.15,ENE,67,0.0,2.0,96,0.02,,,0.33,Weather View 32 v70,2013-02-04 06:26:00,
2013-02-03 22:31:00,42.7,41.6,30.15,ENE,67,2.0,2.0,96,0.01,,,0.33,Weather View 32 v70,2013-02-04 06:31:00,
2013-02-03 22:36:00,42.6,41.5,30.16,ENE,67,0.0,2.0,96,0.01,,,0.33,Weather View 32 v70,2013-02-04 06:36:00,
2013-02-03 22:41:00,42.6,41.5,30.16,ENE,67,0.0,2.0,96,0.01,,,0.33,Weather View 32 v70,2013-02-04 06:41:00,
2013-02-03 22:46:00,42.5,41.4,30.15,ENE,67,1.0,2.0,96,0.01,,,0.33,Weather View 32 v70,2013-02-04 06:46:00,
2013-02-03 22:51:00,42.5,41.4,30.15,East,90,1.0,2.0,96,0.01,,,0.33,Weather View 32 v70,2013-02-04 06:51:00,
2013-02-03 22:56:00,42.5,41.4,30.15,East,90,0.0,2.0,96,0.01,,,0.33,Weather View 32 v70,2013-02-04 06:56:00,
2013-02-03 23:01:00,42.5,41.4,30.15,East,90,2.0,2.0,96,0.01,,,0.33,Weather View 32 v70,2013-02-04 07:01:00,
2013-02-03 23:06:00,42.5,41.4,30.15,East,90,2.0,2.0,96,0.00,,,0.33,Weather View 32 v70,2013-02-04 07:06:00,
2013-02-03 23:11:00,42.6,41.5,30.15,NE,45,2.0,2.0,96,0.00,,,0.33,Weather View 32 v70,2013-02-04 07:11:00,
2013-02-03 23:16:00,42.6,41.5,30.15,NE,45,0.0,2.0,96,0.00,,,0.33,Weather View 32 v70,2013-02-04 07:16:00,
2013-02-03 23:21:00,42.6,41.5,30.15,NE,45,1.0,2.0,96,0.00,,,0.33,Weather View 32 v70,2013-02-04 07:21:00,
2013-02-03 23:26:00,42.6,41.5,30.15,NE,45,0.0,2.0,96,0.00,,,0.33,Weather View 32 v70,2013-02-04 07:26:00,
2013-02-03 23:31:00,42.6,41.5,30.15,NE,45,0.0,2.0,96,0.00,,,0.33,Weather View 32 v70,2013-02-04 07:31:00,
2013-02-03 23:36:00,42.6,41.5,30.15,NE,45,2.0,2.0,96,0.00,,,0.33,Weather View 32 v70,2013-02-04 07:36:00,
2013-02-03 23:41:00,42.7,41.6,30.15,NE,45,2.0,2.0,96,0.00,,,0.33,Weather View 32 v70,2013-02-04 07:41:00,
2013-02-03 23:46:00,42.7,41.6,30.15,NE,45,0.0,2.0,96,0.00,,,0.33,Weather View 32 v70,2013-02-04 07:46:00,
2013-02-03 23:51:00,42.7,41.6,30.15,NNE,22,1.0,3.0,96,0.00,,,0.33,Weather View 32 v70,2013-02-04 07:51:00,
2013-02-03 23:56:00,42.7,41.6,30.15,North,360,2.0,3.0,96,0.00,,,0.33,Weather View 32 v70,2013-02-04 07:56:00,